#timestamp,LO_Frequency,Hit 
1497272415.5,286046993.2,N
1497272435.4,286046991.0,N
1497272455.2,286046992.9,N
1497272475.0,286046991.3,N
1497272475.9,286046991.3,N
1497272495.8,286046989.7,N
1497272515.6,286046986.9,N
1497272535.5,286046989.0,N
1497272555.3,286046991.6,N
1497272575.1,286046988.8,N
1497272595.9,286046989.5,N
1497272615.7,286046989.7,N
1497272635.5,286046986.9,N
1497272655.4,286046987.6,N
1497272675.2,286046986.9,N
1497272695.1,286046989.0,N
1497272696.0,286046989.0,N
1497272715.8,286046989.5,N
1497272735.6,286046988.9,N
1497272755.5,286046987.2,N
1497272775.3,286046987.2,N
1497272795.1,286046989.1,N
1497272815.9,286046988.9,N
1497272835.7,286046989.5,N
1497272855.6,286046988.7,N
1497272875.4,286046987.2,N
1497272895.2,286046988.2,N
1497272915.1,286046985.8,N
1497272916.0,286046985.8,N
1497272935.8,286046982.5,N
1497272955.7,286046984.8,N
1497272975.5,286046985.1,N
1497272995.3,286046983.3,N
1497273015.2,286046979.0,N
1497273035.0,286046980.8,N
1497273035.9,286046980.8,N
1497273055.8,286046982.7,N
1497273075.6,286046981.0,N
1497273095.4,286046981.3,N
1497273115.3,286046981.4,N
1497273135.1,286046981.3,N
1497273155.9,286046983.5,N
1497273175.7,286046981.7,N
1497273195.5,286046981.6,N
1497273215.4,286046982.0,N
1497273235.2,286046981.9,N
1497273255.0,286046981.2,N
1497273255.9,286046981.2,N
1497273275.8,286046982.6,N
1497273295.6,286046985.1,N
1497273315.5,286046982.7,N
1497273335.3,286046982.8,N
1497273355.1,286046982.2,N
1497273375.9,286046982.2,N
1497273395.7,286046983.3,N
1497273415.6,286046983.3,N
1497273435.4,286046980.5,N
1497273455.2,286046982.7,N
1497273475.1,286046983.6,N
1497273476.0,286046983.6,N
1497273495.8,286046982.3,N
1497273515.6,286046982.2,N
1497273535.5,286046983.0,N
1497273555.3,286046983.5,N
1497273575.1,286046982.1,N
1497273595.9,286046984.9,N
1497273615.7,286046985.2,N
1497273635.6,286046984.9,N
1497273655.4,286046983.4,N
1497273675.2,286046982.9,N
1497273695.1,286046981.3,N
1497273696.0,286046981.3,N
1497273715.8,286046980.7,N
1497273735.6,286046980.5,N
1497273755.5,286046981.7,N
1497273775.3,286046979.4,N
1497273795.2,286046979.4,N
1497273815.9,286046979.5,N
1497273835.7,286046979.7,N
1497273855.6,286046980.1,N
1497273875.4,286046981.3,N
1497273895.2,286046981.8,N
1497273915.1,286046980.8,N
1497273916.0,286046980.8,N
1497273935.8,286046980.6,N
1497273955.7,286046983.4,N
1497273975.5,286046982.6,N
1497273995.3,286046983.1,N
1497274015.2,286046985.0,N
1497274035.0,286046983.7,N
1497274035.9,286046983.7,N
1497274055.7,286046986.3,N
1497274075.6,286046985.5,N
1497274095.4,286046988.3,N
1497274115.3,286046987.9,N
1497274135.1,286046988.0,N
1497274136.0,286046988.0,N
1497274155.8,286046987.1,N
1497274175.7,286046987.5,N
1497274195.5,286046987.7,N
1497274215.3,286046989.5,N
1497274235.2,286046987.4,N
1497274255.0,286046987.2,N
1497274255.9,286046987.2,N
1497274275.8,286046986.9,N
1497274295.6,286046985.4,N
1497274315.4,286046988.4,N
1497274335.3,286046987.4,N
1497274355.1,286046987.3,N
1497274375.8,286046988.2,N
1497274395.7,286046987.8,N
1497274415.5,286046985.3,N
1497274435.4,286046988.2,N
1497274455.2,286046988.3,N
1497274475.0,286046988.0,N
1497274475.9,286046988.0,N
1497274495.8,286046987.9,N
1497274515.6,286046985.3,N
1497274535.4,286046986.1,N
1497274555.3,286046983.7,N
1497274575.1,286046988.4,N
1497274595.9,286046985.8,N
1497274615.7,286046985.7,N
1497274635.5,286046985.3,N
1497274655.4,286046988.3,N
1497274675.2,286046988.2,N
1497274695.1,286046986.6,N
1497274696.0,286046986.6,N
1497274715.8,286046984.4,N
1497274735.6,286046984.1,N
1497274755.5,286046983.9,N
1497274775.3,286046985.1,N
1497274795.1,286046982.1,N
1497274815.9,286046984.6,N
1497274835.7,286046982.5,N
1497274855.6,286046982.2,N
1497274875.4,286046985.2,N
1497274895.2,286046984.6,N
1497274915.1,286046984.6,N
1497274916.0,286046984.6,N
1497274935.8,286046983.7,N
1497274955.6,286046984.5,N
1497274975.5,286046984.7,N
1497274995.3,286046986.8,N
1497275015.2,286046986.8,N
1497275035.9,286046986.2,N
1497275055.7,286046986.7,N
1497275075.6,286046986.0,N
1497275095.4,286046985.8,N
1497275115.2,286046986.8,N
1497275135.1,286046983.7,N
1497275136.0,286046983.7,N
1497275155.8,286046983.7,N
1497275175.7,286046984.4,N
1497275195.5,286046986.2,N
1497275215.3,286046986.3,N
1497275235.2,286046986.0,N
1497275255.0,286046985.0,N
1497275255.9,286046985.0,N
1497275275.7,286046984.6,N
1497275295.6,286046984.5,Y
1497275315.4,286046995.0,N
1497275335.3,286046997.3,N
1497275355.1,286046997.6,N
1497275356.0,286046997.6,N
1497275375.8,286046997.7,N
1497275395.7,286046995.3,N
1497275415.5,286046994.9,N
1497275435.4,286046995.7,N
1497275455.2,286046994.1,N
1497275475.0,286046994.4,N
1497275475.9,286046994.4,N
1497275495.8,286046994.3,N
1497275515.6,286046992.9,N
1497275535.4,286046994.8,N
1497275555.3,286046992.6,N
1497275575.1,286046993.2,N
1497275595.9,286046992.6,N
1497275615.7,286046990.3,N
1497275635.5,286046990.6,N
1497275655.4,286046990.7,N
1497275675.2,286046991.4,N
1497275695.0,286046990.2,N
1497275695.9,286046990.2,N
1497275715.8,286046991.2,N
1497275735.6,286046989.3,N
1497275755.5,286046989.4,N
1497275775.3,286046987.0,N
1497275795.1,286046988.4,N
1497275815.9,286046984.1,Y
1497275835.7,286046996.7,N
1497275855.5,286046995.9,N
1497275875.4,286046995.6,N
1497275895.2,286046994.3,N
1497275915.1,286046992.5,N
1497275916.0,286046992.5,N
1497275935.8,286046991.7,N
1497275955.6,286046993.9,N
1497275975.5,286046992.1,N
1497275995.3,286046990.2,N
